7 * 24
多渠道服务支持
STARLINK-38327(NORAD编号100629)是SpaceX星链(Starlink)低轨宽带互联网星座的组网卫星之一,由SpaceX研制,设计寿命约5年,属于星链规模化部署阶段的组网卫星。该卫星运行于近地轨道,典型轨道高度约550公里级,轨道周期约90-95分钟,主要功能为通过星地链路、星间激光链路中继传输高速互联网数据,为全球偏远、通信基础设施薄弱区域,以及航空航海、应急通信场景提供低时延、高速率的宽带接入服务,单星可支持最高吉比特级的传输速率,是SpaceX构建全球天基通信网络的组成单元,截至2026年9月该卫星处于在轨运行状态。
美国
(US)
| 数据来源 | 国际轨道数据 |
| 星历时间: | 2026-09-20T05:56:51+0800 19小时前 查看轨道信息 |
| 半长轴: | 6715.38km |
| 偏心率: | 0.000345 |
| 轨道倾角: | 70.000° |
| 近地点辐角 | 259.976° |
| 升交点赤经 | 239.412° |
| 平近点角 | 100.105° |
| 近地点: | 334.926km |
| 远地点: | 339.56km |
| 周期: | 91.278分钟 |
| 每日圈数: | 15.776 |